Theta_e
295 294 293 293 292 292 291 291 291 291 292 292 289 291 294 292 282 284 296 297 296 296 297 304 307 309 310 312 313 314 314 314 314 313 312 313 313 313 313 312 312 312 311 311 311 311 312 312 311 311 311 309 309 309 309 308 308 307 307 307 305 304 303 303 302 302 302 302 302 302 302 301 301 301 301 301 302 302 303 303 302 300 299 298 296 295 294
294 295 294 293 291 291 291 291 291 293 292 291 291 293 295 295 291 298 298 296 296 298 300 308 309 312 313 314 314 314 313 312 312 312 311 312 312 312 312 311 311 311 311 311 311 311 311 311 311 310 309 308 308 307 307 307 307 307 307 305 304 303 302 302 302 302 302 302 301 301 301 300 300 301 301 301 301 301 301 301 299 298 297 296 295 294 293
292 298 297 295 292 291 289 291 292 292 292 293 293 293 293 295 295 299 298 296 295 300 304 309 312 314 314 313 312 311 312 311 311 310 311 311 311 311 311 311 311 311 311 311 311 311 311 311 310 310 308 307 307 307 307 306 306 306 305 303 303 302 302 302 301 301 301 301 301 300 300 300 300 301 301 301 301 301 300 300 299 298 296 294 293 293 293
286 296 297 295 296 294 291 290 290 291 291 291 292 288 293 291 290 295 296 293 292 298 308 311 312 313 312 311 311 311 311 311 310 310 310 310 311 311 311 311 311 311 310 310 310 310 310 310 310 309 307 306 306 306 306 306 306 306 304 303 302 302 301 301 300 300 300 300 300 300 300 300 300 300 300 300 300 300 300 300 299 297 295 294 293 293 292
283 293 294 295 295 291 287 285 290 293 293 294 295 295 297 294 295 291 287 288 294 300 307 309 310 311 311 311 311 311 311 311 311 310 310 311 311 311 311 310 310 311 310 310 310 310 311 310 309 307 307 306 305 305 305 306 306 304 303 302 301 300 300 300 300 300 299 300 300 299 299 300 300 300 300 300 299 299 299 300 299 297 295 294 293 292 292
283 291 293 293 285 279 281 294 301 297 293 293 292 292 294 298 297 292 292 294 298 301 306 308 308 309 311 312 313 314 312 311 311 311 311 311 311 311 311 311 311 311 311 311 311 311 311 310 309 307 307 306 306 306 306 306 304 302 301 300 299 299 299 299 299 299 299 299 298 298 299 299 299 299 299 298 298 298 299 299 298 298 296 294 294 293 292
282 288 290 282 276 280 292 301 303 303 301 300 295 295 296 299 298 299 296 297 297 300 305 309 310 312 314 315 314 314 314 313 312 311 311 310 310 310 311 310 310 310 310 310 310 310 309 308 307 307 307 306 306 305 305 304 302 301 300 299 299 299 298 298 298 298 298 297 298 298 298 298 298 298 298 297 298 298 297 297 296 297 297 295 295 295 293
285 285 283 277 278 292 300 300 301 304 301 298 294 292 297 298 296 297 294 296 297 298 301 308 311 312 312 315 315 315 315 315 313 311 310 310 310 310 310 310 310 310 310 309 309 309 310 308 307 307 306 306 305 304 304 302 300 300 299 299 299 298 297 297 297 297 297 297 297 297 298 298 297 297 297 297 297 297 297 295 295 295 295 297 295 294 293
281 281 282 282 293 294 294 295 296 296 294 295 291 286 289 299 300 296 296 296 297 299 300 308 309 311 312 311 312 315 315 314 315 314 313 312 311 311 311 311 311 311 311 310 310 310 309 309 307 307 307 306 304 303 302 301 299 299 299 299 298 297 297 297 297 297 298 297 297 297 297 297 296 296 296 296 296 297 295 295 294 293 293 294 295 295 295
284 282 281 283 282 281 284 294 301 303 303 302 300 293 288 298 299 300 297 295 296 298 298 305 308 310 307 304 305 312 314 315 314 314 314 313 312 311 311 310 310 310 310 310 310 310 309 309 307 307 306 305 303 302 301 300 299 299 299 298 298 297 296 297 297 297 297 297 297 297 296 296 296 295 296 296 296 297 295 294 293 293 293 293 293 294 294
284 283 281 279 279 280 288 296 300 302 304 303 300 292 286 293 300 299 300 299 297 297 298 298 306 302 300 299 305 312 314 314 314 312 313 312 311 311 310 309 309 309 310 310 310 310 309 306 306 306 305 304 302 301 300 299 299 298 297 297 297 296 296 297 297 297 297 297 297 296 296 296 296 296 296 296 297 297 296 295 295 294 295 293 292 292 292
283 282 281 280 282 285 292 299 300 300 303 301 293 284 281 294 304 304 300 299 298 299 299 303 304 301 293 298 306 313 314 314 314 313 311 311 310 310 310 310 310 310 311 310 309 308 306 306 307 306 305 303 302 301 300 299 298 297 297 297 296 296 297 297 297 297 297 298 297 297 296 296 296 296 296 296 296 296 296 296 295 294 294 293 292 292 293
283 284 281 283 284 292 300 300 300 301 304 296 285 281 284 300 303 307 305 300 299 300 300 305 298 302 301 307 312 313 313 313 312 313 312 312 311 310 309 309 307 310 310 310 308 307 307 307 307 306 305 303 301 300 299 298 297 297 297 297 297 297 297 297 297 297 297 297 297 297 297 296 296 297 296 295 295 295 294 295 294 294 295 295 294 293 293
281 281 281 282 286 296 303 302 304 303 298 285 282 290 300 303 304 306 306 303 301 302 300 304 305 307 310 313 313 312 312 312 311 312 311 310 310 311 310 308 308 309 308 308 307 307 307 307 307 306 305 302 301 299 298 297 297 297 297 297 297 297 297 297 297 297 297 297 298 298 298 297 296 296 296 297 297 296 295 295 295 294 294 295 294 294 295
285 283 281 281 280 290 306 303 301 300 287 287 297 304 306 308 307 306 307 308 307 307 307 309 309 310 311 312 312 312 311 310 310 310 309 309 308 308 308 307 308 308 307 307 306 306 307 307 306 306 304 301 300 299 298 297 298 298 297 297 297 297 297 297 297 297 297 297 298 299 298 297 296 296 296 297 297 297 296 295 296 296 296 295 294 294 294
282 282 280 281 285 295 306 299 288 299 303 304 308 307 304 306 306 307 309 309 308 310 310 309 310 310 310 310 311 311 311 310 310 310 309 309 308 308 308 308 308 308 307 307 306 306 307 306 306 305 303 300 299 298 298 299 298 298 297 297 297 297 297 297 297 297 298 298 298 298 298 298 297 297 297 297 297 297 296 296 296 295 295 296 294 293 293
286 285 289 295 301 304 307 307 306 306 309 310 311 308 306 305 305 309 309 310 311 311 311 311 310 309 310 310 311 310 309 309 310 309 308 308 308 307 307 307 307 307 307 306 306 306 305 304 304 303 302 300 298 297 298 299 298 297 297 297 297 297 297 297 297 298 297 297 297 297 297 298 297 297 297 297 296 296 296 296 295 295 294 295 294 293 293
298 299 302 304 304 305 307 308 309 307 307 309 311 309 307 308 309 309 309 311 312 312 311 310 308 310 310 310 310 310 309 309 309 309 309 308 308 308 308 307 306 307 306 306 306 304 303 304 303 302 301 300 298 298 299 298 298 298 297 297 297 297 297 297 297 298 297 297 297 297 297 297 297 297 297 297 297 296 296 297 296 295 293 292 292 293 291
290 286 296 301 302 305 306 306 307 307 307 309 310 309 309 309 311 311 312 312 312 312 311 310 309 309 310 310 309 310 310 309 309 308 308 308 308 307 307 307 306 307 306 305 305 303 301 302 301 300 300 300 299 299 298 298 298 298 298 297 297 297 297 297 297 298 297 296 296 297 297 297 297 298 297 297 297 295 295 294 294 292 292 292 292 291 291
289 290 300 302 303 303 306 303 302 304 306 308 308 308 308 309 309 309 311 313 312 311 311 310 310 309 309 309 309 309 309 309 309 308 308 307 307 308 307 306 307 306 306 305 304 302 301 301 300 300 300 299 299 298 298 298 298 298 297 297 297 297 297 297 297 298 297 293 296 296 296 296 296 296 297 298 296 295 294 294 292 292 291 291 291 292 290
297 299 300 303 304 304 304 305 305 306 306 307 307 307 308 309 308 308 311 312 312 311 310 310 310 309 309 310 310 309 309 309 309 308 308 308 308 307 306 306 306 306 305 304 303 302 301 300 299 299 299 299 299 298 298 298 298 297 297 296 297 297 298 298 297 297 297 297 296 296 295 296 296 296 295 295 294 293 293 293 294 294 293 293 293 293 291
287 290 296 300 290 289 301 305 306 307 308 308 307 307 306 307 308 308 309 310 311 311 311 310 310 309 309 310 310 309 309 309 309 308 308 308 307 306 306 306 306 305 305 304 302 301 300 299 299 298 298 298 298 298 298 298 298 297 296 297 297 297 297 297 297 296 297 297 297 296 296 294 293 293 291 293 292 291 289 291 292 292 291 291 293 292 290
286 297 303 302 300 300 304 306 307 308 307 307 307 306 307 307 308 308 308 308 309 310 311 311 310 309 309 309 310 309 309 309 310 309 308 307 307 306 306 306 305 305 305 304 302 300 299 299 298 298 298 298 298 298 298 298 298 297 297 296 296 296 296 296 296 296 296 296 296 297 297 295 293 291 291 290 290 290 290 290 290 290 289 289 289 291 292
301 304 304 304 301 299 303 306 307 308 309 308 308 308 308 308 308 308 308 309 308 308 309 311 310 309 309 308 308 307 309 310 309 309 309 308 307 306 307 306 306 305 305 302 301 299 299 299 298 298 298 298 297 298 298 298 298 297 297 296 296 296 296 296 295 295 296 295 296 296 296 295 293 292 290 290 290 289 289 289 289 288 288 286 285 286 288
300 305 305 306 305 305 306 308 308 307 308 309 307 306 306 306 308 309 307 308 308 309 308 309 309 309 308 307 307 306 308 309 309 308 307 306 305 306 306 306 306 304 303 302 301 300 299 298 298 298 297 297 297 297 298 298 298 297 297 296 296 296 296 296 296 295 295 295 295 296 296 294 293 292 291 289 288 288 289 289 289 289 289 288 287 286 286
306 304 305 307 307 306 306 305 306 305 305 307 308 308 308 308 306 308 308 308 308 309 309 308 308 309 309 307 306 306 307 307 305 305 307 306 305 305 306 306 306 304 303 302 301 299 299 298 299 298 298 298 298 298 299 299 299 298 297 297 297 297 296 296 296 295 295 295 295 296 295 295 293 292 291 291 290 288 287 288 290 290 290 289 289 289 289
306 306 305 303 302 303 306 303 302 305 305 306 308 307 308 307 307 306 308 308 309 308 308 308 308 308 307 308 306 306 306 305 305 306 306 306 304 305 306 307 304 302 302 301 300 298 297 298 298 298 298 298 299 299 299 299 299 298 298 298 298 294 291 293 297 296 295 294 294 295 295 294 292 291 291 291 291 289 287 287 286 287 287 289 289 289 289
305 304 305 299 299 300 304 306 307 306 306 307 306 306 306 305 306 305 305 306 306 306 307 307 307 306 306 305 305 303 304 305 305 305 305 303 304 305 304 303 302 301 300 299 299 297 297 298 298 298 298 299 300 300 300 300 299 299 298 298 298 297 296 296 296 296 295 293 294 295 295 295 293 292 291 290 290 289 288 288 287 287 286 288 288 289 290
302 303 305 305 304 302 302 303 304 305 304 304 305 306 305 305 304 304 305 305 306 305 305 305 305 305 305 304 305 305 304 303 303 302 302 301 301 301 300 301 300 299 298 298 298 298 298 298 298 297 298 300 301 301 300 300 299 299 298 298 298 297 297 297 297 296 296 295 295 295 293 292 293 293 291 291 291 290 289 289 288 288 288 288 289 290 290
303 304 304 303 304 303 302 302 302 303 303 303 304 304 306 304 303 302 304 304 304 304 304 304 305 304 304 303 302 303 303 302 302 301 300 300 300 300 299 299 298 298 298 297 298 298 298 298 297 297 299 300 301 300 300 299 299 300 299 299 298 297 297 297 297 296 295 296 295 291 292 294 293 294 293 292 292 290 290 289 289 288 289 289 290 289 288
303 304 304 303 305 302 300 302 302 302 302 303 302 301 303 304 303 302 302 304 304 304 303 304 303 303 302 302 301 301 302 302 301 300 300 299 299 299 299 299 297 295 296 296 298 298 298 298 298 298 300 301 301 301 300 299 299 299 299 299 299 294 292 292 292 296 295 294 294 294 294 293 293 292 290 291 291 291 291 290 289 289 289 290 290 289 290
302 302 303 301 301 300 300 301 301 300 300 301 301 299 301 302 301 302 303 303 304 304 303 303 302 301 301 301 301 301 300 300 300 299 300 299 299 299 299 299 298 295 297 298 298 298 298 298 298 299 301 301 301 301 300 299 298 298 298 296 297 296 293 291 294 293 294 292 293 293 291 293 293 293 291 290 290 290 289 289 289 288 289 288 289 290 291
300 298 298 298 298 298 298 299 300 299 300 300 300 302 302 303 302 302 303 303 304 303 303 303 302 302 301 301 300 300 299 298 298 298 298 298 298 298 299 298 298 298 298 298 298 299 298 298 298 300 300 301 301 301 301 299 299 298 298 298 297 296 292 291 293 294 293 292 292 293 293 292 292 291 291 290 290 289 290 289 288 287 288 289 289 290 289
299 297 299 300 298 296 296 299 299 300 300 300 300 299 301 302 301 301 302 302 303 302 303 303 303 302 301 300 300 299 298 297 295 294 295 296 297 298 298 298 298 298 298 299 298 298 299 299 300 300 301 301 301 300 300 300 299 299 299 298 297 295 294 294 293 293 293 292 293 291 292 292 292 292 289 289 290 289 289 290 288 288 287 290 289 289 289
301 302 302 301 301 300 300 299 299 299 300 299 300 301 302 302 301 299 300 303 302 302 303 303 303 302 301 300 299 298 297 295 292 293 293 294 297 298 298 298 298 298 298 298 298 298 299 300 300 300 301 301 300 299 299 300 299 299 299 299 297 295 295 294 294 293 292 293 293 293 291 292 292 290 290 290 291 290 288 288 288 287 287 287 289 288 288
302 302 300 300 300 300 300 300 299 299 299 298 299 299 300 301 300 301 302 302 303 303 303 302 302 302 300 299 298 297 295 292 291 291 294 294 297 298 298 298 297 297 297 297 298 299 300 300 293 293 299 299 299 299 299 300 300 299 298 298 296 294 294 294 294 294 292 292 292 291 291 291 291 290 291 290 290 292 289 290 290 289 288 288 288 287 287
302 301 301 302 300 300 299 299 300 300 299 299 300 300 300 300 301 302 302 303 303 302 302 302 301 300 299 299 298 297 296 295 294 294 294 294 298 298 298 297 297 296 296 295 297 299 299 299 292 290 296 298 298 298 298 292 299 299 298 298 296 294 293 293 293 292 292 290 291 290 288 289 291 291 290 292 291 289 289 290 288 290 289 289 288 287 287
300 301 302 301 300 300 300 301 300 300 299 299 300 300 300 300 301 302 303 302 302 302 302 302 301 300 299 297 296 294 293 294 294 295 295 297 298 298 297 297 296 296 295 296 298 299 299 296 290 293 299 299 299 299 297 290 292 298 297 297 296 295 293 293 292 292 291 292 290 291 290 289 290 290 292 291 291 290 289 289 288 288 288 289 288 288 287
299 301 301 300 300 299 300 300 300 300 300 299 299 300 301 300 300 302 302 302 303 303 303 303 303 301 299 297 295 294 294 291 293 296 297 298 299 298 296 297 298 298 298 300 300 299 299 295 296 298 299 300 300 300 295 289 290 298 296 296 296 294 293 293 293 292 292 292 290 290 291 290 290 290 289 290 290 290 288 289 289 287 287 288 288 289 289
300 300 299 300 299 299 299 299 299 299 299 300 300 300 300 301 301 302 302 302 302 302 304 304 302 299 297 295 295 294 294 295 296 297 298 299 298 298 298 299 300 300 300 294 300 300 295 291 296 299 299 300 300 300 297 291 290 294 295 294 295 294 294 294 294 293 292 291 291 289 290 290 290 290 289 289 289 289 288 290 290 289 288 287 288 288 288
299 301 299 299 299 299 299 299 300 300 299 301 302 301 301 301 301 302 301 301 301 302 304 303 301 298 297 296 295 295 295 295 297 298 298 298 297 296 295 295 299 300 299 300 300 297 293 293 298 299 299 300 300 296 298 291 293 295 294 293 293 294 294 294 294 294 292 292 291 291 291 291 289 289 289 290 290 289 289 290 290 290 290 290 289 289 288
301 301 300 300 299 299 299 300 300 299 300 301 301 301 302 302 301 301 302 302 301 302 302 302 297 299 298 297 296 295 295 296 297 297 298 297 295 294 292 295 299 300 295 294 294 294 295 297 296 294 299 299 297 292 292 294 296 296 296 294 293 292 294 293 293 294 294 292 292 292 292 291 291 290 289 289 289 289 290 289 289 289 290 290 290 290 290
302 300 299 300 299 299 300 299 300 300 300 301 302 302 302 302 302 302 301 300 300 302 302 300 297 296 297 297 296 295 295 296 297 297 297 298 299 299 297 298 300 300 291 295 298 298 298 298 298 297 294 295 296 291 290 295 296 296 296 295 293 292 292 293 294 293 293 293 292 293 292 291 291 291 290 290 290 290 290 290 290 289 288 289 290 290 290
302 301 300 300 299 300 299 299 299 300 300 299 302 302 302 301 302 302 301 300 300 301 301 300 299 299 297 297 296 295 295 296 297 297 297 297 298 300 301 300 300 296 290 294 296 297 298 298 298 296 291 290 291 289 293 296 296 295 295 295 294 293 292 293 292 293 294 292 291 292 292 290 291 292 292 291 290 291 290 290 291 291 290 290 289 289 289
301 301 302 301 300 299 300 299 299 299 299 300 301 301 302 301 302 302 301 300 300 301 299 299 300 300 299 298 297 297 297 298 298 298 296 295 295 297 300 295 298 295 292 291 296 297 298 299 296 291 291 290 289 288 294 295 295 295 295 295 294 293 293 293 291 293 292 293 293 292 292 291 291 291 291 291 290 290 291 291 291 291 291 290 290 290 290
302 302 302 297 299 299 298 300 300 301 301 300 299 299 301 301 301 301 302 301 300 300 302 302 301 300 300 299 299 299 299 299 299 300 300 299 298 299 301 296 297 293 291 291 296 297 298 292 291 290 290 289 289 290 294 294 294 294 295 294 294 292 293 292 291 291 291 291 292 291 293 292 292 291 291 290 291 291 290 290 289 290 291 290 291 291 291
301 302 302 302 302 302 301 301 300 300 299 299 298 297 298 300 303 303 303 303 302 301 302 302 302 302 302 301 300 298 297 297 298 300 300 299 299 299 296 293 291 291 290 294 296 296 297 295 291 290 290 289 289 293 294 295 295 295 295 294 294 293 292 293 293 293 292 291 291 290 289 290 290 291 291 290 290 290 288 289 289 289 289 289 289 289 288
301 301 301 301 301 302 301 301 300 298 297 297 298 299 299 300 301 302 303 303 303 302 301 303 303 303 303 303 302 302 300 298 294 297 300 300 300 299 298 293 293 290 290 291 292 292 291 291 291 290 290 289 290 295 296 295 295 294 294 294 294 294 294 293 293 293 293 292 292 291 290 290 290 290 290 289 289 288 288 289 288 288 288 288 289 289 289
301 301 301 301 301 300 300 300 299 297 297 298 298 299 300 300 300 300 302 303 304 303 302 302 303 302 302 301 303 303 302 302 300 297 301 301 300 300 300 294 289 289 291 294 296 295 291 288 289 289 288 288 294 297 297 296 296 293 294 294 294 294 294 293 293 293 293 293 292 292 291 291 291 292 292 291 290 290 288 288 288 288 288 288 288 288 289
302 302 300 300 300 299 299 298 297 297 298 297 297 298 300 299 297 298 298 300 301 300 302 301 300 300 300 300 301 303 303 302 302 301 301 301 301 301 299 298 294 290 291 294 296 294 290 288 287 288 288 292 295 296 296 297 297 295 294 292 291 292 292 292 290 290 292 292 292 291 291 291 292 292 291 292 291 291 292 292 291 290 289 288 288 288 288
300 299 299 299 300 301 301 300 299 299 299 298 299 298 297 297 297 296 298 298 298 297 298 299 299 299 300 300 300 300 300 302 301 297 301 301 300 296 295 296 294 291 293 294 296 295 292 290 291 289 290 292 295 296 296 295 295 295 293 293 293 292 290 290 289 290 292 292 291 292 292 292 292 293 292 292 291 291 291 291 290 290 291 291 291 290 290
301 301 302 301 301 301 302 301 301 301 302 300 299 297 296 296 296 296 296 294 297 297 297 297 297 298 299 299 299 299 300 300 298 297 297 298 298 297 295 292 294 292 293 295 297 298 294 293 290 288 289 293 295 295 292 291 294 293 294 292 292 293 291 290 289 289 291 291 291 291 291 291 291 291 291 289 289 288 289 290 288 289 288 288 290 289 289
Wind_Speed
5 5 10 8 12 9 7 7 5 6 8 8 5 3 3 4 5 5 6 7 11 6 4 10 17 18 15 17 17 17 16 15 14 15 17 17 17 17 17 17 16 17 17 16 16 14 14 12 11 13 11 10 11 12 11 11 10 10 10 10 9 8 8 8 8 8 7 6 6 6 7 7 7 7 6 5 5 6 6 6 7 9 8 8 8 7 6
7 9 13 12 15 8 9 10 9 4 9 10 5 4 1 2 6 14 10 8 9 6 5 13 14 15 16 12 11 12 14 16 16 16 16 17 17 18 18 18 17 16 16 17 16 16 16 15 14 13 10 12 12 12 11 11 11 10 10 9 9 9 9 8 8 8 8 6 7 6 7 8 7 6 5 5 5 6 7 8 9 9 9 8 7 6 5
5 2 4 8 13 14 7 11 11 6 5 5 6 5 4 6 1 9 10 9 6 2 6 9 10 13 13 13 14 15 14 15 17 16 16 16 17 17 17 17 16 15 15 15 15 16 16 15 15 13 11 12 12 11 11 11 11 10 9 10 9 9 9 8 8 8 7 7 7 8 7 7 7 6 6 6 6 6 7 9 10 10 9 8 6 5 5
4 2 5 0 6 3 4 6 12 8 6 3 2 5 3 3 4 6 8 8 5 2 8 12 14 15 17 17 15 14 13 15 16 17 16 17 17 17 17 17 16 16 16 16 15 14 14 13 15 12 12 12 12 11 11 11 11 10 10 10 10 10 9 8 8 8 8 8 8 8 7 7 7 7 7 7 6 6 7 8 9 9 9 7 6 5 4
1 3 3 5 5 7 3 5 6 7 1 2 1 3 5 6 6 7 7 7 8 7 10 14 14 16 15 16 15 14 14 15 18 19 19 18 18 18 18 18 17 16 16 16 16 14 13 13 12 12 14 13 12 12 12 11 10 10 11 10 10 9 8 8 8 8 8 9 9 7 8 8 7 7 7 6 6 6 6 6 7 9 8 8 7 5 5
1 2 3 4 4 2 2 2 6 3 4 7 4 3 4 2 5 4 8 5 4 10 12 14 13 15 15 17 16 19 19 16 14 15 16 17 17 16 15 16 15 14 13 13 14 15 13 13 13 14 13 12 11 11 11 10 11 10 11 10 10 10 9 9 9 8 9 9 8 8 8 7 7 7 7 7 6 5 5 6 7 8 8 8 6 6 5
2 1 3 3 0 4 4 5 3 5 7 6 3 5 7 3 5 7 4 2 7 7 12 15 14 16 16 15 17 15 18 20 18 19 17 16 17 17 17 16 16 15 15 14 14 12 11 13 13 13 12 11 12 11 11 11 10 11 11 11 10 10 9 9 9 9 9 8 9 8 8 8 8 8 7 7 7 6 6 6 5 6 8 7 6 6 5
2 2 1 1 3 2 3 4 1 2 5 5 8 5 3 3 8 7 5 4 4 6 6 10 12 12 11 13 15 19 17 18 18 17 16 17 17 17 16 18 16 16 16 16 15 13 11 12 13 13 13 13 13 12 11 11 11 11 11 11 10 9 10 9 9 9 9 10 9 8 9 9 9 8 7 7 7 6 5 5 4 4 5 6 5 5 5
2 3 5 4 1 2 6 3 2 3 1 2 3 0 2 1 0 5 9 9 5 3 5 11 7 9 11 11 8 13 18 17 17 20 18 19 18 16 15 16 15 15 15 15 15 14 13 12 14 14 13 13 13 12 12 11 11 11 11 11 10 10 9 9 10 10 10 10 9 9 9 9 7 6 7 7 7 6 7 6 6 5 4 5 5 6 5
2 2 2 2 1 1 6 6 5 2 5 3 4 3 3 4 3 2 3 5 7 7 4 10 8 8 10 8 7 9 13 15 14 11 14 15 15 16 15 14 14 15 14 14 14 15 15 12 14 13 14 14 14 13 12 11 11 11 10 10 10 10 9 10 10 10 9 9 10 9 8 8 8 7 7 6 6 6 7 7 7 6 5 5 4 5 6
1 1 1 1 2 4 7 9 7 2 1 5 6 2 6 4 2 4 1 2 5 7 6 6 8 8 10 10 8 11 13 13 15 15 14 16 16 17 17 18 17 16 15 15 14 14 14 13 15 15 15 16 14 13 12 12 12 11 10 10 10 10 10 10 10 10 9 9 9 9 9 8 7 8 8 8 7 7 7 7 7 7 6 6 4 4 4
1 1 1 2 0 1 3 6 3 3 3 7 7 2 5 2 6 5 3 3 4 5 5 7 13 11 9 9 9 12 16 16 15 17 17 17 16 16 16 16 17 16 16 16 15 15 15 15 15 17 16 14 13 12 12 11 11 11 11 11 9 9 10 10 9 9 9 9 9 9 9 7 7 7 6 7 7 7 6 7 7 6 6 6 6 4 4
4 1 1 0 0 4 5 3 4 4 5 8 5 7 4 3 5 5 5 4 6 5 4 7 9 7 8 9 11 13 14 15 12 12 15 18 19 19 17 16 16 15 15 16 15 16 15 15 15 15 14 14 13 12 12 11 11 11 10 9 10 11 10 10 9 9 8 9 10 8 7 7 7 7 7 7 6 6 5 7 7 7 7 6 6 5 4
3 3 1 3 1 4 1 2 7 5 6 1 4 5 2 1 5 5 6 5 6 7 6 5 6 5 6 13 13 15 17 17 15 16 15 15 13 14 15 18 16 14 14 15 15 15 14 16 15 14 14 14 13 12 12 12 11 10 10 11 11 10 11 10 9 9 10 9 9 8 7 7 7 6 5 6 6 6 6 6 7 6 5 5 6 6 5
1 1 2 0 2 3 1 6 5 4 5 3 4 2 2 1 2 5 4 2 3 5 4 6 8 8 8 13 14 14 14 16 18 19 18 18 18 18 17 16 15 15 14 15 16 15 14 14 13 13 14 14 12 11 11 11 11 11 11 11 11 11 11 10 10 10 10 10 8 7 7 7 7 7 6 7 6 6 6 5 5 5 5 5 4 5 4
3 2 1 1 3 3 1 3 3 1 2 2 1 1 0 3 4 2 6 6 3 7 11 7 7 10 11 9 12 12 12 14 16 16 15 15 15 15 15 16 16 15 14 14 14 13 12 13 12 13 14 14 13 12 12 11 11 10 11 11 11 11 10 10 10 10 10 9 7 7 7 7 7 7 6 6 7 6 6 6 5 5 4 6 5 5 5
2 1 2 3 1 3 5 7 4 3 1 4 3 3 4 4 4 1 5 5 7 4 7 9 10 10 12 14 15 16 14 16 18 18 18 18 18 17 16 14 14 13 14 15 14 13 11 13 12 12 12 14 14 13 11 11 12 12 11 11 11 11 10 10 10 9 8 8 8 7 7 7 7 6 6 7 7 6 5 4 4 5 5 4 4 5 7
2 2 3 3 4 6 7 5 4 4 5 6 6 6 6 5 4 4 6 5 7 6 5 8 4 8 9 12 10 12 14 15 14 14 14 14 14 14 14 13 13 12 13 14 15 14 13 14 12 11 11 12 14 12 11 11 12 12 12 12 11 11 11 10 10 10 9 8 7 7 7 6 6 6 6 6 6 6 5 6 5 5 5 3 6 5 6
5 2 6 2 5 3 5 5 4 4 4 6 5 6 5 5 6 7 4 5 5 6 6 8 8 7 8 10 9 11 12 14 15 16 16 15 16 16 15 15 14 14 15 15 16 14 15 13 12 11 12 11 11 10 12 12 12 12 12 12 11 11 11 10 9 9 10 8 7 7 6 6 6 6 6 4 5 5 6 7 5 6 6 5 5 5 6
4 3 1 3 4 3 2 3 2 1 5 6 5 4 4 4 5 5 5 6 6 5 6 6 9 7 7 10 9 10 12 13 14 15 16 16 14 13 14 16 14 14 15 15 15 14 14 12 11 12 12 12 11 12 11 12 12 12 12 12 12 12 12 10 9 9 9 11 10 7 7 7 6 4 4 4 3 3 5 5 5 5 6 6 5 4 5
3 3 4 4 6 4 4 5 4 3 4 6 5 3 4 3 3 5 6 5 4 5 6 7 8 7 6 8 9 10 11 13 14 14 15 16 16 15 15 15 14 14 13 14 14 15 13 11 11 11 11 11 12 13 12 12 12 13 12 12 12 12 11 9 9 8 8 8 7 7 7 5 2 2 5 6 6 4 2 0 6 7 6 6 5 4 5
2 1 1 1 4 1 1 4 4 4 6 6 3 1 2 2 2 3 4 4 5 5 5 6 7 8 7 8 8 10 11 13 14 14 15 15 15 14 15 14 13 12 12 14 15 15 12 11 11 12 11 11 12 12 12 11 12 13 12 12 12 11 10 9 9 9 8 8 7 6 6 6 5 5 5 8 9 8 2 1 7 9 8 4 5 6 6
3 3 2 2 6 3 1 1 3 4 4 4 3 1 1 2 3 3 4 4 5 5 3 4 6 6 8 8 9 9 10 13 15 16 17 16 14 15 16 15 14 14 13 14 15 14 12 11 12 12 11 12 12 11 12 11 13 13 12 11 11 10 10 9 10 9 9 8 7 6 7 6 5 7 6 7 8 6 10 8 8 10 9 9 7 7 8
2 2 3 4 2 3 1 1 4 4 4 5 5 5 4 2 3 3 2 2 3 4 4 3 4 6 6 6 8 9 12 14 16 16 17 18 17 17 17 16 15 14 15 15 16 14 12 12 12 12 11 12 12 11 11 11 12 12 12 11 10 9 9 9 11 10 9 8 7 7 7 7 7 8 7 6 4 7 8 7 6 4 6 6 6 6 6
3 2 2 1 4 4 2 1 3 4 5 6 4 3 3 4 3 2 2 2 1 4 5 4 4 5 5 5 6 8 12 12 15 18 18 16 17 17 17 16 16 12 15 15 15 14 13 13 12 11 12 12 11 11 11 12 13 12 11 11 10 9 9 10 10 11 10 9 8 7 8 8 7 7 7 7 7 2 2 5 5 3 1 1 3 4 4
4 5 3 1 3 2 1 4 6 5 4 4 1 1 3 4 5 4 2 3 1 2 5 5 5 5 5 5 4 7 10 11 11 14 14 14 14 15 16 17 14 10 13 14 14 15 14 15 13 11 12 11 11 10 11 12 12 12 12 11 11 10 10 11 10 9 9 9 8 7 7 8 8 8 8 8 7 7 6 3 1 3 3 5 6 6 6
3 3 3 3 3 6 5 4 2 4 4 3 4 2 1 3 5 4 1 4 2 3 2 5 5 4 4 5 6 8 11 10 11 12 12 14 15 16 16 13 10 13 14 13 12 13 16 14 12 12 11 9 8 9 11 11 10 10 10 10 9 9 13 11 9 8 8 7 7 6 7 8 8 8 8 7 7 8 8 8 7 7 6 6 8 9 8
4 3 2 5 3 3 2 3 4 4 2 2 2 1 2 1 2 2 2 2 2 4 5 1 6 8 6 5 9 10 11 12 12 10 11 11 9 10 10 11 13 14 13 13 11 12 12 12 12 11 9 8 10 10 10 10 9 8 8 9 8 7 8 9 7 5 7 7 7 6 7 7 8 8 8 8 8 8 7 8 7 7 6 7 7 9 12
5 5 5 4 5 5 4 2 3 5 5 3 3 1 3 0 1 2 1 3 1 4 7 6 5 5 8 5 9 11 10 10 10 10 9 8 9 10 10 12 12 13 13 13 13 13 12 12 13 12 10 11 11 11 9 8 7 6 7 7 7 6 8 8 8 6 6 7 6 7 6 7 8 8 7 7 8 7 7 7 7 7 7 7 4 4 5
5 6 6 4 3 3 3 2 4 4 3 1 1 2 0 0 1 3 1 3 3 7 7 7 7 6 6 6 5 10 12 12 11 9 10 9 10 12 12 12 12 10 11 12 12 12 14 14 14 14 11 11 12 12 11 10 10 8 7 7 7 6 7 8 7 7 5 6 8 9 7 6 7 8 8 9 9 8 8 8 9 9 8 6 6 7 8
6 6 6 2 3 2 3 5 5 4 3 1 2 2 1 2 1 4 3 6 8 8 5 8 8 8 7 6 6 6 7 9 10 11 11 11 11 13 15 17 15 12 13 13 13 13 14 14 14 13 12 12 11 10 11 10 9 9 8 6 6 9 11 12 9 7 6 6 6 7 7 6 6 6 6 7 9 8 8 9 9 8 8 7 7 7 9
7 6 5 2 2 2 3 5 4 4 4 3 1 3 1 1 2 2 0 5 9 10 8 8 8 8 7 7 7 8 8 8 8 9 9 10 10 11 12 13 16 16 14 14 13 14 14 14 14 12 12 12 11 9 9 9 9 8 7 7 6 7 9 12 8 9 7 7 6 7 7 7 7 6 6 6 8 9 9 8 8 9 9 9 8 8 9
7 5 3 3 2 1 1 4 5 5 5 3 1 1 3 0 3 2 4 8 9 9 9 8 8 8 8 8 8 8 8 7 7 8 10 10 9 9 7 8 11 13 13 13 14 15 16 16 13 12 12 11 11 10 10 10 9 9 8 7 6 7 8 9 9 8 8 7 6 7 7 7 7 6 6 8 7 7 7 8 7 6 7 7 8 8 8
4 3 2 2 4 6 3 2 3 6 4 4 4 2 2 2 2 3 5 5 7 8 9 9 9 9 9 9 9 8 8 9 8 7 6 9 9 7 7 9 10 12 12 11 11 10 10 12 12 11 12 10 10 11 11 11 9 9 8 8 6 7 8 8 8 7 8 8 7 8 7 7 7 6 5 5 6 6 7 8 7 7 7 7 7 8 8
3 3 3 4 4 4 5 7 3 2 5 5 4 1 1 0 2 4 5 8 6 6 7 9 9 9 10 9 9 8 8 7 6 7 6 6 8 9 10 10 9 10 10 9 11 10 12 12 11 12 11 10 10 10 9 11 9 8 7 8 7 7 8 8 8 7 7 7 7 7 7 7 7 6 7 5 6 6 7 6 6 7 7 7 6 5 5
3 3 3 2 1 3 6 4 5 6 3 3 4 5 1 1 4 6 8 7 7 8 8 8 8 9 10 10 9 9 8 7 6 6 6 6 8 8 10 12 13 12 11 9 8 11 12 12 14 15 12 12 12 12 11 10 10 9 7 7 7 8 8 9 9 8 7 6 6 7 7 8 9 8 8 6 6 6 6 6 7 7 8 8 8 6 5
4 3 0 0 3 6 5 4 1 3 4 3 2 2 4 6 8 7 6 7 7 7 8 7 7 8 8 7 7 7 8 10 9 7 6 7 8 9 10 11 12 13 12 12 10 10 10 12 14 16 12 9 10 12 12 14 10 9 8 7 7 8 8 8 7 7 7 8 7 7 7 6 7 7 8 8 7 8 7 8 8 8 7 8 8 8 5
2 0 1 3 4 5 5 6 4 4 4 3 4 5 5 6 7 7 7 6 7 7 7 7 7 7 8 7 8 9 7 8 9 8 7 8 9 10 10 11 11 11 11 11 11 11 10 13 16 11 12 12 11 11 12 14 13 10 7 7 7 8 8 8 8 7 8 7 7 7 7 7 7 8 8 8 8 8 8 8 8 8 8 8 7 7 7
1 1 3 6 5 3 2 4 5 6 5 4 5 6 6 7 7 7 7 6 5 6 6 6 8 8 8 9 7 6 7 7 9 9 8 9 8 10 10 10 10 11 9 9 11 11 11 12 11 10 10 10 10 11 10 13 14 9 8 8 7 8 8 8 8 8 8 8 8 8 6 7 7 7 7 8 8 7 6 8 8 6 6 7 8 8 8
1 1 2 5 6 2 3 5 6 5 5 4 4 6 5 5 5 7 6 6 4 5 6 7 7 7 7 8 8 7 7 8 9 10 9 9 9 8 6 6 6 8 8 11 11 10 12 15 14 9 8 10 10 8 7 10 11 8 8 8 7 7 8 8 8 8 8 7 8 8 7 7 7 7 7 7 7 7 8 7 7 7 7 7 7 8 8
3 0 2 3 4 3 5 4 4 4 3 1 4 5 5 5 5 7 7 6 4 4 5 7 7 7 7 7 8 8 7 7 9 10 9 9 9 8 8 8 6 7 8 9 9 10 13 11 12 10 7 7 8 9 8 10 10 6 6 7 6 7 7 9 9 9 9 9 8 8 9 8 7 7 8 7 7 7 7 8 8 8 8 9 8 8 7
2 1 1 1 4 5 4 5 5 5 4 3 3 4 6 4 4 7 7 7 5 4 5 7 8 8 7 7 7 7 7 7 8 8 9 10 10 8 8 6 6 6 10 12 10 11 10 10 8 7 7 7 6 11 13 10 8 7 7 7 8 6 7 9 10 11 10 9 9 9 9 8 8 8 8 7 8 8 8 8 8 8 8 9 9 9 8
1 4 2 0 4 4 5 4 4 4 5 5 5 4 4 3 4 7 7 5 4 5 6 6 8 10 9 8 8 8 8 7 8 8 7 6 8 9 11 9 8 8 13 11 10 9 10 9 8 6 8 8 8 11 15 11 10 9 9 9 9 8 7 7 8 8 9 10 10 9 9 9 9 9 9 8 8 8 8 8 8 8 8 8 9 9 8
1 1 4 3 4 1 4 4 3 5 6 4 5 5 4 3 4 8 7 6 4 5 7 7 8 8 8 9 8 8 8 8 8 8 8 7 7 7 7 6 8 10 16 11 9 9 10 10 9 10 12 12 12 13 10 9 10 9 9 10 10 9 8 5 5 6 7 8 8 9 9 9 10 9 10 9 9 8 8 8 8 8 8 8 8 8 8
2 2 0 2 5 2 1 4 6 5 6 5 6 5 4 4 2 6 7 6 5 5 8 8 8 9 9 9 8 8 8 8 9 9 9 9 9 9 10 9 9 9 13 14 10 9 9 10 12 13 12 14 13 11 8 8 9 10 10 10 9 9 9 8 5 5 6 7 8 8 8 8 9 9 9 9 9 9 9 9 9 9 8 8 8 8 8
2 1 0 5 4 5 3 1 4 6 7 7 5 5 4 3 3 3 5 5 5 5 9 8 8 8 9 9 8 8 8 7 8 8 7 8 11 9 10 11 9 10 16 17 10 10 9 13 14 14 14 15 13 9 7 8 8 9 9 9 8 8 8 8 7 6 6 5 6 7 8 8 8 8 8 8 8 9 9 9 9 8 8 8 8 9 9
4 1 1 0 1 1 2 1 3 6 6 7 7 4 4 3 0 0 4 6 5 4 8 7 8 8 9 10 9 8 8 8 7 8 8 6 4 5 9 11 12 15 16 13 10 11 10 12 15 17 17 16 14 9 8 8 9 9 9 8 8 8 7 8 8 8 7 7 7 6 6 6 7 7 7 7 8 8 8 8 8 8 8 9 8 9 9
4 3 3 3 1 1 2 1 2 4 5 7 7 7 5 4 2 2 1 3 4 4 5 7 7 8 9 10 9 10 10 9 8 7 8 7 6 6 6 5 8 13 16 15 16 14 17 16 17 19 20 18 13 10 10 8 8 8 8 8 8 8 8 8 8 9 9 8 7 7 7 6 6 6 5 6 7 6 6 7 8 8 7 8 8 7 7
5 4 4 4 2 3 2 0 1 1 4 3 7 7 7 7 6 4 2 2 2 2 3 3 6 6 7 8 8 9 9 9 11 9 9 8 8 8 7 8 13 16 13 10 10 10 12 13 16 19 19 16 11 10 9 8 8 8 8 8 7 8 8 9 9 9 9 9 9 9 8 8 8 7 7 8 7 7 6 6 7 7 6 8 7 7 8
4 4 4 5 3 3 4 2 2 3 2 3 3 6 7 5 6 7 5 5 4 3 2 3 3 5 7 6 7 7 10 10 9 7 9 10 8 9 9 8 8 14 15 11 9 9 8 12 13 14 13 10 9 9 7 8 8 8 7 8 8 8 8 9 8 10 9 9 8 9 9 9 8 9 9 8 9 9 9 9 9 10 12 9 8 8 8
5 4 4 5 5 5 5 4 4 4 3 3 4 4 8 8 8 7 6 7 6 6 7 5 4 4 6 6 5 5 5 7 9 9 10 9 7 9 11 9 11 11 11 12 10 9 7 6 6 8 10 9 8 8 7 8 8 8 8 8 7 7 7 7 6 7 7 8 8 8 9 9 9 9 9 9 10 10 9 10 10 9 8 8 9 8 8
2 3 2 4 5 5 6 4 3 2 0 1 3 6 5 6 4 4 6 7 7 7 6 4 5 5 5 5 6 5 4 4 4 5 8 9 7 7 10 11 9 9 9 8 8 8 9 9 10 11 11 9 8 8 9 10 9 9 9 8 7 7 8 8 7 6 6 7 8 8 9 9 9 9 9 8 8 8 8 8 6 7 8 7 8 7 7
Wind_Direction
284 202 212 191 183 205 192 217 224 219 208 220 192 166 211 134 136 162 185 155 151 197 196 149 154 164 159 160 157 155 146 138 138 142 147 152 153 152 155 159 158 157 160 160 159 158 161 163 163 160 159 143 136 142 145 145 145 145 143 143 144 142 142 142 140 136 132 131 128 123 117 110 104 101 100 102 101 102 104 105 97 94 95 91 90 87 81
270 259 225 188 180 190 182 210 228 205 177 205 187 176 126 137 155 153 164 166 164 183 154 142 152 151 147 136 125 119 133 145 145 148 151 154 156 157 160 162 163 162 159 161 162 162 165 166 163 163 150 145 144 145 145 143 146 146 146 148 146 143 145 145 140 136 133 129 126 120 116 117 117 116 114 108 100 94 97 102 101 95 86 83 84 86 83
270 291 226 170 181 170 187 197 225 219 190 187 202 175 176 92 59 140 136 142 172 256 134 118 112 115 112 119 132 141 140 141 149 152 154 156 160 160 160 162 163 161 160 163 165 167 166 164 162 159 151 143 144 141 142 145 148 150 149 146 142 144 145 145 138 134 129 127 123 122 122 119 116 113 111 108 104 100 99 103 105 102 97 94 92 86 85
298 0 7 161 95 126 170 196 207 213 183 165 197 174 189 129 167 138 120 134 184 224 119 113 116 124 133 141 143 143 152 156 153 156 159 160 163 164 163 163 162 163 165 165 167 169 168 164 158 155 150 145 148 148 147 149 150 148 144 143 143 145 146 143 140 137 135 130 128 129 124 120 117 115 112 108 106 104 103 107 112 110 108 108 105 101 92
278 290 46 339 39 38 359 295 218 178 171 143 187 181 162 172 146 121 146 207 203 162 146 131 138 138 144 145 153 154 155 160 161 163 165 166 166 166 164 166 166 167 166 166 167 167 169 162 152 147 151 150 152 151 151 149 148 147 144 145 146 147 150 146 142 140 136 134 134 132 129 125 120 118 117 114 110 105 104 110 112 116 122 117 112 110 96
251 316 14 4 48 59 239 253 295 142 164 186 157 199 168 204 130 197 174 185 165 143 143 143 157 146 159 166 171 161 159 162 168 168 166 167 165 162 164 164 166 165 163 167 168 167 163 161 151 148 149 147 145 146 149 149 148 146 144 148 151 152 149 146 143 141 138 136 136 134 129 124 120 119 119 118 117 110 104 95 103 122 130 128 129 115 104
278 321 32 37 36 220 241 255 267 85 80 67 196 216 179 170 124 115 97 133 129 165 165 162 170 168 171 158 152 164 165 161 164 167 168 168 166 165 165 167 169 168 165 164 164 163 156 149 147 145 142 141 146 150 153 149 147 148 150 152 155 154 148 146 142 142 138 135 135 132 126 123 121 123 125 123 117 118 114 114 112 118 132 138 136 129 117
51 54 67 104 239 237 286 289 359 57 68 79 59 7 320 191 171 152 174 192 204 155 164 179 167 164 148 152 159 161 166 166 163 162 168 167 166 168 169 166 167 166 165 164 164 160 154 145 150 151 150 150 153 153 151 150 151 153 154 155 155 151 147 146 143 140 136 136 134 130 127 127 132 137 138 137 135 134 122 116 108 95 90 109 125 128 128
152 186 142 195 299 332 336 357 356 76 104 67 116 180 268 285 37 175 178 179 185 182 138 171 157 148 129 142 169 165 164 171 168 165 165 164 168 161 159 159 159 159 160 163 163 158 159 155 155 158 155 153 151 150 153 155 155 155 156 156 154 150 146 143 140 138 138 136 133 131 133 135 139 139 133 129 127 124 119 121 112 103 104 100 114 127 130
119 113 98 29 23 237 277 256 275 162 146 116 144 105 305 307 326 121 141 185 167 191 148 162 159 137 122 150 193 180 169 160 156 157 152 152 151 153 149 146 149 156 162 162 159 160 160 159 158 154 153 150 149 155 157 155 154 157 156 155 150 146 144 143 139 139 139 137 135 134 135 139 140 138 134 130 133 131 131 132 127 132 120 108 113 125 134
352 264 146 196 153 243 215 232 239 266 53 100 95 66 278 276 330 318 104 190 208 183 189 170 156 139 166 197 187 182 159 157 154 149 147 150 151 153 151 153 156 161 163 162 160 158 162 157 151 150 149 149 152 157 156 157 157 156 156 152 149 146 145 141 138 137 137 135 135 135 137 143 142 141 143 146 147 142 146 144 146 142 134 127 131 132 139
220 142 132 288 198 165 274 244 212 182 80 77 62 90 270 275 356 330 340 239 200 213 192 143 165 170 187 193 196 165 162 156 150 148 148 148 148 151 149 155 157 159 159 160 163 164 165 155 149 147 147 151 154 157 158 156 156 156 155 152 145 140 138 137 136 135 136 135 136 138 142 144 142 144 144 136 143 149 154 148 148 151 145 150 154 173 175
254 285 256 70 297 282 268 180 121 118 82 80 99 196 232 287 328 321 316 256 221 201 190 137 166 214 190 171 152 148 136 134 138 141 145 150 150 151 152 154 154 158 164 166 164 164 159 152 151 149 150 153 157 159 156 155 157 155 150 142 139 139 137 136 136 135 134 136 137 139 141 143 141 138 141 146 148 143 143 142 142 151 159 164 170 181 185
194 212 141 209 205 238 272 52 120 116 64 116 205 234 213 340 314 303 329 282 233 188 179 160 139 163 149 139 139 140 146 143 140 140 137 137 142 147 149 152 155 157 160 162 158 159 157 155 153 153 154 156 159 158 157 159 156 150 143 141 139 137 139 138 135 133 134 136 137 140 143 137 138 146 150 134 136 137 138 138 146 160 161 168 176 183 181
195 94 186 59 141 282 268 92 39 40 117 223 220 304 308 25 357 23 351 55 99 117 102 126 135 124 133 139 142 145 138 133 138 143 145 147 150 152 151 155 157 154 157 159 159 158 157 155 153 154 153 155 158 157 158 157 151 146 143 141 140 138 137 135 135 136 137 138 140 141 141 142 141 144 139 129 130 131 136 143 162 175 179 185 184 188 149
160 150 169 189 217 234 333 96 153 208 157 204 216 108 5 359 52 41 72 29 22 113 124 127 119 125 124 123 128 130 133 131 136 137 139 141 144 146 152 153 154 153 153 154 154 156 156 155 153 154 153 156 158 158 158 153 145 141 140 140 137 136 136 135 135 136 137 136 137 138 142 143 141 141 137 135 140 151 161 165 179 185 200 176 174 160 154
121 209 194 253 271 77 56 79 91 112 63 39 33 84 85 52 2 13 77 75 57 58 115 123 127 127 137 143 144 140 145 143 147 148 150 151 151 150 153 154 154 155 154 155 154 155 154 153 154 154 155 156 156 156 156 149 145 143 142 137 134 135 137 136 136 137 133 136 140 141 143 141 143 140 140 144 153 169 164 174 176 181 213 172 162 159 146
41 76 157 178 50 49 56 56 83 69 38 24 44 53 49 14 9 37 108 108 93 84 88 94 81 125 137 133 137 132 139 141 141 135 132 136 140 143 148 150 154 155 153 155 158 153 151 155 153 152 155 155 157 156 150 145 144 143 139 136 137 139 139 139 140 139 138 140 141 142 142 143 149 155 153 160 169 181 176 188 190 194 201 158 144 142 139
71 320 308 42 122 97 69 78 38 32 59 57 44 43 33 27 26 22 42 113 104 109 99 114 123 121 129 127 128 127 132 135 141 144 144 147 151 153 156 157 155 155 158 160 163 153 154 157 152 152 154 152 150 146 148 146 145 143 140 140 140 140 143 144 143 143 144 147 148 148 147 153 157 165 165 166 189 182 176 174 156 151 142 141 151 137 143
116 198 68 78 64 77 84 103 81 61 82 65 53 47 35 44 16 28 31 88 91 87 87 113 123 127 124 127 130 126 135 142 144 146 148 149 151 155 152 156 158 155 159 163 161 155 157 156 152 152 153 152 149 149 147 148 144 140 141 144 145 148 149 148 147 149 148 152 150 151 156 155 164 170 178 164 128 133 168 155 140 139 118 110 110 126 134
44 18 20 40 43 23 1 2 28 93 103 92 55 21 11 30 31 7 27 78 108 97 111 108 123 129 137 140 140 132 134 143 147 149 150 152 152 151 152 159 160 160 159 157 157 156 156 153 150 150 152 150 152 151 151 147 143 142 144 145 146 149 151 150 150 149 151 155 156 153 154 122 93 181 173 117 128 109 26 134 137 134 127 117 119 120 129
29 192 227 166 95 224 327 19 15 50 64 88 85 19 1 5 55 22 51 49 85 100 106 117 126 140 145 148 142 141 139 147 144 144 146 150 150 151 155 156 158 159 160 153 155 157 154 152 151 153 152 151 153 152 150 147 145 145 147 147 149 154 155 153 150 150 154 158 153 145 130 118 114 56 49 135 146 134 127 35 118 133 134 146 151 124 117
199 228 226 113 136 107 57 58 36 48 63 56 70 61 353 66 75 78 77 73 79 88 86 114 122 139 145 151 145 142 143 148 150 148 149 153 153 152 157 158 161 164 163 158 157 156 152 152 153 153 150 152 154 155 150 149 148 149 148 149 155 157 157 156 157 156 156 158 158 143 137 144 136 115 99 32 31 105 144 155 136 119 120 131 131 138 142
123 109 136 132 121 162 238 15 47 33 44 52 33 20 30 41 114 59 77 100 116 126 110 107 117 121 130 132 135 146 152 150 152 153 157 158 156 156 161 165 165 165 165 157 160 156 153 152 154 153 151 156 155 154 149 148 150 151 153 154 158 160 157 154 154 156 158 159 162 154 151 156 143 133 122 114 84 44 64 87 63 91 127 145 151 155 158
168 151 115 113 126 141 158 134 84 74 52 71 80 54 35 40 23 86 72 59 69 124 131 129 112 114 119 108 110 118 152 156 155 157 158 154 156 159 166 167 171 161 162 156 158 153 153 154 155 154 152 158 155 153 150 152 154 154 155 156 157 159 155 156 157 159 160 161 172 171 159 154 149 140 137 142 138 138 23 43 104 122 230 247 212 189 186
121 110 106 112 103 119 146 68 49 65 52 30 73 84 19 23 21 33 67 115 23 128 120 134 131 148 139 137 104 107 122 147 146 145 153 153 156 162 166 170 167 152 158 155 156 154 154 155 151 149 153 158 154 149 150 153 154 152 156 158 159 159 160 160 160 167 171 172 176 177 162 156 157 154 158 158 163 157 158 159 282 312 304 261 249 253 251
91 121 126 121 66 47 50 121 146 70 66 35 78 90 42 20 12 359 15 46 14 72 113 166 146 134 138 150 123 122 131 138 132 141 152 156 159 166 168 162 144 148 151 147 151 152 150 147 144 145 150 151 138 140 147 148 148 151 155 158 154 153 158 162 166 170 173 175 176 178 167 158 161 165 166 170 160 159 167 171 190 207 223 243 246 223 226
117 58 96 142 158 134 120 111 134 125 99 80 53 356 68 46 344 343 355 63 12 25 26 25 98 102 107 123 119 106 117 132 142 144 141 148 151 149 146 139 138 142 140 140 139 139 139 139 135 132 128 126 130 132 138 139 137 144 149 151 150 152 164 165 168 167 173 176 180 175 171 168 169 172 172 165 164 176 179 177 184 205 234 230 223 231 228
91 79 70 100 127 126 125 83 68 77 57 23 342 331 124 308 215 279 211 126 124 73 74 62 50 95 124 128 121 126 126 126 127 137 138 133 131 127 128 128 129 132 133 135 138 137 132 128 126 118 114 115 117 124 129 124 122 135 150 157 159 161 172 176 179 177 171 180 186 184 177 167 170 175 175 170 174 172 173 181 194 211 218 229 231 257 240
111 107 108 117 111 116 110 127 117 113 122 233 288 334 147 78 247 281 223 111 89 91 112 94 80 52 56 85 104 132 137 138 135 130 129 130 129 128 123 119 112 112 120 128 134 132 130 133 132 127 127 129 131 140 147 137 142 155 168 174 181 175 181 181 178 180 180 177 187 188 184 175 176 170 171 171 181 176 181 189 199 207 219 223 205 205 212
96 85 82 85 143 196 169 152 130 143 152 129 58 1 312 186 241 307 216 130 95 105 104 102 100 89 66 74 74 71 93 111 122 129 130 132 135 138 138 135 136 149 151 149 143 138 134 134 133 132 134 134 137 139 144 154 161 169 178 183 188 177 175 175 179 184 186 181 183 184 190 183 183 174 181 158 173 182 186 194 201 212 215 213 205 207 219
102 104 130 227 219 236 123 126 141 119 85 83 97 281 270 300 270 287 188 115 119 121 113 101 98 100 104 95 89 93 95 105 112 117 122 128 138 146 152 153 149 146 141 142 142 139 135 133 134 136 138 141 144 147 153 166 173 180 186 195 180 174 173 170 178 188 186 184 179 184 181 182 185 175 179 177 176 180 185 183 185 190 191 180 194 208 220
122 140 169 220 256 200 154 134 128 141 140 140 159 6 349 300 11 319 111 125 118 117 119 116 113 111 110 101 95 95 99 99 104 118 128 133 139 142 137 134 137 139 143 147 147 145 142 140 139 136 134 137 140 156 173 176 181 187 194 195 182 173 177 177 177 184 190 181 180 187 178 180 178 168 176 183 185 181 184 191 201 205 212 214 210 218 206
141 160 154 181 187 191 161 148 131 130 128 109 73 8 336 3 354 8 94 117 114 121 120 124 121 118 113 111 110 108 110 112 116 127 136 138 137 129 126 130 135 137 137 138 135 135 133 134 137 134 136 147 162 170 178 183 184 188 190 195 177 165 180 187 177 173 183 190 187 186 176 178 178 182 181 183 188 182 182 192 201 206 207 214 220 225 212
78 48 83 64 46 102 123 113 90 126 132 134 164 222 213 305 70 73 103 115 110 115 113 115 121 119 119 118 121 123 125 133 139 134 135 134 132 132 129 121 118 122 131 140 146 144 143 141 143 144 151 165 176 181 185 190 190 188 186 188 175 170 181 185 183 184 184 187 177 178 180 179 188 191 198 189 193 194 192 192 195 200 208 225 245 247 223
41 74 51 43 347 94 84 81 100 97 96 132 146 136 160 69 79 68 90 102 109 107 107 110 109 115 122 129 135 139 130 127 125 129 130 133 132 132 133 135 139 140 141 143 154 149 148 151 154 158 164 177 186 189 192 193 194 194 189 179 166 173 180 184 189 190 191 182 170 181 186 187 186 193 199 205 201 196 198 203 212 215 216 220 227 222 222
77 88 128 178 71 78 78 73 68 112 115 63 35 130 102 95 97 103 96 94 101 102 108 106 102 108 127 133 129 127 132 136 137 141 142 139 141 142 145 146 150 150 152 155 167 161 159 162 164 160 163 185 195 197 193 189 190 191 188 179 166 170 174 182 186 187 198 199 193 180 180 188 198 200 200 201 206 208 201 206 216 217 220 221 221 210 200
126 205 304 115 111 80 82 72 55 74 60 49 69 76 91 102 100 98 100 99 104 114 112 118 118 112 101 97 108 125 135 137 134 137 144 148 151 149 154 157 162 161 167 168 161 164 168 172 174 167 176 190 198 194 190 190 186 181 174 164 164 169 175 180 184 189 196 202 205 199 192 181 188 200 203 205 208 211 209 207 200 206 217 223 224 219 208
160 305 96 94 70 56 35 67 72 66 59 68 84 79 76 87 94 104 99 102 109 115 118 114 113 110 114 113 114 121 135 144 143 144 149 152 157 160 171 176 177 177 165 154 161 168 168 171 178 179 185 187 182 182 183 189 185 180 175 165 166 168 173 177 185 190 196 197 196 202 207 205 199 196 201 202 201 203 204 207 215 218 215 216 214 222 222
150 29 115 109 126 132 83 88 80 78 61 54 92 112 108 86 87 102 96 90 92 102 107 116 117 114 117 116 126 136 153 154 152 153 156 158 157 159 158 173 173 166 167 162 166 168 165 170 177 184 180 181 184 184 180 184 186 174 171 175 172 164 179 184 187 192 198 193 200 203 204 205 208 209 207 208 209 211 215 220 221 225 229 230 223 219 213
164 78 129 104 112 106 125 121 116 112 109 80 98 111 98 111 109 106 116 121 125 119 112 117 123 120 133 142 144 149 154 158 158 161 158 156 161 166 166 177 174 161 157 168 176 167 169 173 182 183 184 178 185 180 184 185 184 184 178 179 191 189 181 186 192 194 193 197 200 199 206 208 206 209 212 213 215 213 214 217 219 222 223 227 232 232 227
169 119 101 133 130 131 125 116 120 116 114 92 91 116 115 126 131 136 133 135 144 131 113 128 132 134 135 134 131 137 148 160 161 164 165 166 167 160 166 194 178 157 163 169 175 168 175 178 181 185 187 190 187 176 175 180 187 185 195 203 206 200 196 184 185 192 195 194 195 202 205 206 205 210 210 211 214 217 216 215 218 221 225 225 226 227 227
325 133 129 39 109 123 119 135 155 143 138 130 124 116 113 108 107 121 129 139 146 138 133 127 128 126 129 131 137 149 158 163 163 165 167 182 183 181 177 179 174 174 164 173 176 179 185 188 186 189 194 193 192 183 177 179 188 190 198 206 212 208 212 200 184 178 180 189 195 199 200 204 207 210 211 212 215 216 217 218 218 218 216 216 221 226 230
343 71 149 141 126 145 146 154 128 129 136 146 129 129 126 121 118 130 143 154 171 147 142 138 138 137 139 142 147 156 167 171 169 170 165 175 189 204 197 183 180 174 171 177 181 182 189 195 197 201 205 209 207 177 178 190 190 195 199 203 207 208 208 206 206 201 195 189 188 192 195 197 203 208 209 212 216 218 217 218 221 222 224 222 219 214 215
158 308 202 169 144 134 175 146 168 172 154 146 133 135 137 140 130 134 150 160 177 140 144 148 149 148 151 155 163 173 179 178 176 169 169 175 187 202 192 189 179 169 182 180 186 188 193 191 201 203 208 212 216 188 183 187 194 197 198 200 206 205 208 209 207 203 212 215 205 196 193 192 195 200 207 212 211 211 213 215 219 219 219 224 226 231 233
140 226 351 75 127 171 234 214 131 125 132 123 111 109 121 136 170 148 156 160 177 152 158 159 161 160 156 159 160 162 169 180 189 201 203 191 187 187 180 184 180 178 181 181 185 192 196 196 199 206 211 214 209 194 196 192 191 191 190 190 195 200 207 216 221 224 211 210 213 211 208 208 204 205 202 202 208 212 220 220 223 225 221 220 222 223 226
145 165 138 112 31 108 141 47 101 112 113 117 127 144 136 114 32 167 167 166 179 166 157 169 164 170 161 166 161 160 167 179 194 199 207 205 186 193 186 171 169 177 173 178 184 189 195 197 201 208 211 209 195 193 197 191 189 186 187 188 190 194 199 208 221 232 227 224 221 216 212 204 205 213 217 220 217 213 216 215 220 223 220 216 218 218 219
144 174 164 141 166 89 81 42 90 131 141 166 166 164 165 155 175 271 190 159 152 175 160 167 178 174 170 172 169 170 165 166 176 201 200 202 196 202 192 157 170 173 177 182 184 193 194 194 199 202 206 198 189 194 190 187 187 188 189 189 189 191 197 203 210 218 228 228 224 226 231 232 230 226 223 218 224 225 224 218 223 227 230 225 229 225 224
154 176 158 146 145 134 123 179 341 162 189 187 141 164 166 165 171 209 202 149 145 149 187 168 171 184 174 182 176 167 174 174 175 189 192 189 186 191 202 177 173 172 177 184 191 200 190 187 193 193 186 179 186 188 186 185 184 185 189 194 196 194 193 196 203 206 209 215 218 217 219 219 224 224 231 232 235 233 227 224 223 218 228 234 239 243 239
153 135 134 140 144 142 146 162 248 253 221 154 150 150 169 158 160 189 184 168 165 185 236 217 182 181 195 185 175 168 173 184 192 182 181 189 186 181 186 172 171 176 177 184 193 197 194 181 176 173 170 183 187 184 185 187 190 190 191 190 194 202 205 201 198 197 200 205 205 206 209 214 217 221 221 225 227 230 232 234 236 236 230 222 222 226 229
146 152 169 167 170 171 163 170 201 209 211 181 178 155 148 171 180 185 182 171 168 180 210 211 206 186 173 175 184 187 162 167 181 175 182 196 186 172 177 179 174 175 180 180 183 182 172 173 175 168 176 185 191 193 192 193 194 198 198 203 202 202 203 205 206 214 209 204 207 210 212 213 211 213 215 218 219 222 224 226 228 231 233 234 233 232 231
144 165 165 160 168 165 162 177 204 217 197 156 158 160 154 166 170 174 177 180 167 178 191 184 204 196 174 179 182 198 199 176 151 159 175 184 173 162 173 166 169 176 178 182 181 176 177 182 177 179 181 185 194 197 200 197 197 197 202 204 206 207 210 212 208 207 217 220 215 217 214 210 206 210 216 216 214 215 221 222 226 232 236 239 241 241 241